Wind_Speed
29 31 32 33 33 33 31 30 28 26 23 21 19 19 20 19 19 19 20 20 22 18 27 25 24 20 19 19 12 9 9 8 3 7 5 9 9 10 13 13 9 8 7 8 12 7 7 8 4 11 10 4 5 10
35 37 38 39 38 37 36 35 33 30 26 24 20 19 19 18 18 19 22 19 20 22 25 20 21 21 21 22 23 13 8 14 4 3 5 6 5 3 7 4 13 12 9 6 0 3 5 11 12 6 6 12 13 14
33 36 41 45 45 43 41 37 36 34 30 26 23 19 18 18 18 19 20 18 18 19 29 32 32 31 29 31 24 24 25 19 13 9 4 5 6 3 4 11 11 9 9 9 10 11 14 19 17 21 17 17 19 15
35 37 40 44 50 52 48 43 39 37 33 28 24 22 18 18 18 18 20 19 20 13 9 21 22 24 22 24 26 29 37 30 26 15 10 5 7 10 6 7 8 5 4 9 12 14 19 20 22 18 21 20 16 13
30 31 35 39 42 53 55 50 42 38 35 30 26 23 19 17 16 17 20 24 22 20 8 15 21 22 22 25 24 25 28 28 25 18 7 7 12 10 10 10 9 12 15 12 12 19 17 16 15 17 19 19 17 19
30 31 29 30 34 36 56 53 43 36 33 26 24 20 18 15 12 13 8 18 24 21 7 5 11 13 16 15 20 21 25 28 24 10 9 12 20 9 6 10 12 19 19 22 20 21 22 20 21 22 22 21 20 19
31 28 29 31 21 23 35 48 37 32 28 24 21 18 16 14 14 12 5 6 7 18 5 5 8 4 11 15 17 18 20 16 16 9 8 15 18 8 6 13 21 24 25 25 24 22 25 24 21 19 16 15 16 16
33 35 29 8 13 15 35 38 32 30 25 23 19 16 13 14 17 21 18 13 6 17 9 4 6 14 8 6 5 9 8 14 12 6 8 9 12 3 5 14 20 20 21 21 20 23 26 24 21 17 14 14 15 17
32 38 37 31 28 32 37 33 29 27 24 20 16 12 10 13 14 25 18 17 13 5 5 5 7 6 2 5 5 5 4 3 5 3 3 3 4 7 14 17 20 22 21 21 19 19 18 16 19 19 19 17 15 12
32 28 31 36 36 35 32 30 27 26 25 20 16 7 7 6 6 8 7 5 7 8 9 6 10 10 7 5 1 2 2 1 1 4 3 3 9 25 26 25 18 22 18 18 18 17 18 20 20 22 23 20 19 17
27 31 30 30 30 29 28 31 30 27 21 14 8 5 3 9 8 5 5 6 9 5 8 12 25 12 8 4 1 2 0 1 3 1 3 4 5 6 2 7 14 15 13 10 8 10 12 15 17 17 16 14 15 15
18 21 24 25 25 25 24 24 24 16 10 8 6 6 8 4 4 4 4 5 6 5 6 6 10 16 6 5 2 1 1 0 4 4 3 3 4 4 3 8 14 9 10 8 8 7 6 6 7 6 5 5 5 8
12 13 14 14 16 16 16 19 12 8 10 7 2 2 6 6 7 5 6 4 4 4 3 3 3 4 4 5 1 2 3 4 3 2 3 4 6 5 5 6 6 8 8 10 9 6 5 5 5 5 6 4 1 2
13 12 11 10 10 12 13 11 8 8 3 3 4 5 4 5 5 3 6 6 5 4 2 4 4 0 0 3 1 3 4 3 3 3 2 6 10 7 6 5 5 7 7 8 9 7 3 1 3 5 5 6 7 11
13 10 8 4 5 8 11 8 7 7 3 4 5 4 4 4 4 4 4 4 3 1 4 2 3 2 2 3 3 3 2 4 5 3 4 6 5 7 7 6 7 7 8 8 7 6 2 2 4 6 10 8 4 6
2 4 5 3 1 6 10 10 11 9 4 4 5 4 5 6 1 2 2 2 1 4 5 5 4 3 5 3 5 6 3 4 1 4 8 5 4 5 7 9 8 7 6 5 4 4 4 2 1 2 5 8 8 8
0 2 6 6 3 5 9 13 5 4 4 3 4 5 8 9 7 3 2 4 2 3 3 3 3 5 3 3 4 3 3 5 7 8 5 6 6 8 8 9 9 10 6 5 3 2 1 1 3 4 6 8 8 8
2 5 6 7 3 3 8 8 4 5 5 6 5 4 5 7 7 7 5 5 4 4 4 2 5 3 4 4 4 4 7 10 13 8 6 6 7 8 9 8 10 9 8 7 6 5 3 3 2 3 5 7 8 10
6 7 7 6 3 4 4 6 6 5 6 4 6 5 5 6 7 9 7 6 7 7 5 4 4 3 4 5 6 8 10 9 10 11 7 8 8 10 12 10 10 8 8 8 5 4 5 5 4 4 6 8 7 10
9 8 8 8 4 4 4 4 4 5 4 2 5 6 6 5 6 6 7 9 9 4 4 4 4 9 7 9 10 9 9 10 10 10 8 4 8 10 10 10 8 10 10 10 10 9 7 6 6 7 7 9 10 11
5 6 10 5 5 6 4 3 5 4 5 5 5 6 7 3 5 4 4 6 6 4 4 3 5 7 7 7 7 9 9 9 10 10 12 12 11 13 12 10 13 11 10 10 10 10 11 9 8 9 13 15 13 13
7 10 3 3 3 3 4 4 5 4 4 5 6 5 6 4 6 5 3 7 5 2 2 4 5 6 7 7 8 9 10 11 11 11 11 11 13 13 13 12 11 12 12 12 12 12 11 10 10 11 14 16 15 15
8 3 1 2 2 2 3 4 3 3 2 3 4 3 3 3 2 2 4 4 1 1 2 4 7 8 8 8 8 8 9 11 12 12 13 13 14 15 14 14 14 14 15 13 12 13 14 14 17 16 17 17 18 17
3 1 1 2 3 2 5 3 3 4 3 3 3 4 5 2 4 5 5 1 2 1 2 5 6 8 8 7 9 9 10 12 12 12 12 14 14 14 13 13 14 16 15 14 13 13 13 15 17 18 20 20 20 19
1 3 3 3 3 3 3 3 2 3 3 3 4 5 2 3 3 3 2 2 2 8 8 9 10 10 11 12 12 13 12 12 14 16 15 14 17 17 15 14 13 13 13 12 13 13 12 13 15 17 19 20 21 20
2 3 2 7 4 5 3 4 3 3 5 3 3 3 3 2 3 3 2 13 15 14 15 13 12 14 14 13 16 17 17 17 17 16 16 14 18 18 17 18 15 14 12 10 11 12 12 13 14 16 17 18 19 20
1 2 2 2 7 10 5 6 8 5 3 3 2 3 3 4 3 3 7 14 12 12 12 12 13 12 14 16 17 18 21 21 17 19 21 21 19 17 17 17 17 14 15 16 15 12 12 14 14 15 16 17 18 18
2 5 6 11 6 5 5 4 3 2 2 2 5 3 4 4 5 5 7 12 12 12 10 10 10 12 14 16 18 19 20 20 20 18 17 17 16 14 14 14 15 16 17 16 14 13 13 13 14 15 16 15 14 16
6 8 9 9 4 4 3 2 3 2 3 6 4 3 3 4 5 7 9 11 10 11 13 15 15 17 15 16 15 16 16 17 17 18 18 17 15 7 11 15 14 12 13 13 13 12 12 11 12 14 14 13 11 11
5 11 10 5 2 3 2 3 10 14 14 13 11 14 15 2 7 8 9 12 14 15 15 15 17 18 19 20 22 21 18 15 12 12 14 13 16 19 18 16 16 13 12 12 13 13 12 11 10 11 14 14 13 12
10 9 6 6 6 10 9 17 13 14 10 7 7 6 4 6 5 12 16 14 15 14 16 19 19 18 20 20 20 21 24 19 19 17 14 16 17 17 17 18 17 13 11 10 9 9 9 10 12 13 14 15 16 14
7 5 7 5 11 14 13 10 17 10 6 5 4 3 4 7 5 5 16 16 17 18 20 20 21 22 20 19 18 16 19 21 18 19 18 16 17 17 19 16 14 10 8 7 7 7 8 9 11 12 14 15 16 16
9 8 7 6 8 9 17 13 10 3 4 3 2 2 4 6 5 4 11 16 18 18 22 25 25 23 20 20 16 17 20 17 15 15 16 14 14 13 10 8 7 6 5 4 4 4 5 5 7 10 12 13 14 14
Wind_Direction
270 264 259 254 251 249 245 241 236 237 241 244 243 237 240 244 243 243 250 247 245 270 272 271 277 281 281 283 285 312 321 226 244 233 225 249 243 235 242 240 209 218 216 227 240 240 259 312 245 245 283 297 310 321
273 269 264 259 254 249 246 241 234 230 234 238 238 236 238 242 246 246 251 248 252 248 261 277 274 268 271 271 280 273 267 303 302 294 324 305 253 277 255 255 221 236 241 265 63 313 358 310 313 303 280 308 308 301
290 280 270 261 254 247 241 237 230 229 229 233 235 238 241 242 248 251 251 253 258 256 269 262 263 263 259 258 256 265 268 269 268 278 316 325 292 312 231 238 238 231 248 251 266 277 296 294 288 267 272 282 286 275
285 278 277 278 263 243 237 232 225 225 228 228 232 237 244 246 250 256 254 254 246 265 270 272 266 262 259 256 247 247 256 259 264 272 283 262 267 269 282 296 293 285 230 248 267 266 272 276 275 265 277 273 267 260
307 291 279 269 261 260 236 227 222 220 223 227 231 232 241 246 251 261 261 249 242 234 284 294 291 276 263 253 248 252 248 245 244 250 250 263 274 263 261 269 267 262 256 257 255 258 265 263 268 260 261 269 273 277
323 311 299 283 261 247 238 219 215 214 217 218 219 227 232 237 244 258 275 271 233 230 254 272 270 280 260 246 236 266 238 233 229 229 238 245 247 266 266 273 272 259 265 271 274 276 283 288 279 277 276 272 267 268
344 333 304 288 252 234 225 204 200 199 200 204 211 219 222 223 227 222 258 317 214 208 245 261 264 216 233 240 244 253 243 224 209 220 229 248 268 232 270 268 272 280 280 274 268 270 271 270 271 277 267 267 267 258
10 9 5 36 172 187 184 177 178 183 189 197 203 207 214 220 242 246 249 249 216 199 238 256 268 274 199 211 227 228 208 213 206 225 223 227 251 269 266 268 279 280 280 276 260 257 258 265 261 260 265 269 270 265
36 45 57 78 96 120 140 151 161 166 177 177 177 190 208 229 235 250 241 235 198 264 259 234 257 304 254 261 229 218 234 195 159 241 252 274 232 228 250 281 292 301 298 289 277 268 258 259 251 249 261 273 263 261
53 58 76 88 103 115 125 135 145 153 159 164 167 180 206 206 177 140 147 190 215 222 238 252 265 259 272 255 229 211 229 309 250 226 161 231 253 262 270 281 305 313 303 291 264 254 260 264 263 265 269 270 255 248
63 71 80 97 107 115 124 133 139 147 154 165 184 192 157 165 162 191 206 214 196 224 220 238 232 249 277 254 311 55 13 345 267 153 217 224 259 271 305 319 326 320 323 313 276 260 261 265 269 271 269 264 253 250
71 81 91 98 107 116 126 137 147 146 164 175 164 131 146 192 197 233 218 203 222 237 201 235 243 210 210 226 259 163 248 19 253 354 267 265 295 51 352 338 333 358 343 351 353 346 331 306 280 256 253 255 230 210
84 90 97 105 116 126 134 142 142 161 140 143 164 185 203 180 225 228 212 194 221 193 170 178 178 186 182 222 259 206 231 235 295 243 239 267 9 18 354 329 354 336 352 0 356 353 4 28 70 121 134 163 200 176
76 85 97 106 121 138 146 159 162 171 196 211 203 233 224 187 225 217 323 5 18 21 182 203 149 194 32 194 129 242 232 252 255 246 270 25 18 352 354 350 343 341 349 350 342 333 305 206 166 163 162 124 113 122
51 58 69 72 139 164 176 178 190 205 238 250 230 261 218 322 316 317 312 308 4 148 151 145 151 213 182 220 223 269 247 241 229 261 10 32 6 352 345 346 342 335 344 351 348 345 338 206 244 213 178 179 198 194
352 4 15 17 74 216 216 222 244 257 245 246 249 274 290 289 225 233 301 315 147 207 241 230 186 201 213 214 195 220 243 251 320 13 1 357 358 345 335 330 329 323 324 338 350 19 35 47 181 192 171 169 171 167
78 287 317 329 311 200 211 227 252 237 247 246 260 274 276 291 297 321 296 288 297 260 251 271 232 231 306 238 223 224 248 338 348 332 340 338 335 327 323 326 325 319 317 303 295 275 319 75 108 125 162 171 164 163
281 292 320 334 343 200 202 216 253 246 244 240 255 270 260 263 279 286 273 269 266 256 270 290 314 250 244 259 292 10 7 338 320 294 301 312 321 324 322 320 313 308 308 302 283 264 240 207 170 186 186 178 169 163
279 275 297 311 294 225 225 221 226 257 240 242 253 257 255 261 262 258 266 259 252 271 303 268 258 244 260 319 1 353 331 318 306 303 306 309 321 330 334 319 317 320 297 293 281 259 248 219 220 197 188 171 171 171
290 278 290 302 273 238 237 233 224 266 266 312 265 264 257 267 284 265 255 244 239 238 213 234 258 314 345 346 332 320 320 318 314 300 293 303 320 326 324 326 309 291 291 284 273 251 240 232 221 206 195 191 187 187
312 268 307 291 250 231 267 251 244 259 279 259 284 283 282 257 277 261 258 236 224 224 235 296 29 10 4 343 332 322 314 310 306 303 305 307 306 310 309 308 318 317 288 274 264 265 241 225 228 213 215 208 204 200
288 311 303 269 241 244 256 240 277 282 264 274 280 259 273 248 247 225 207 220 238 235 26 356 348 338 334 334 324 320 321 318 312 310 310 306 306 303 300 300 302 304 292 279 268 253 254 238 216 215 217 211 207 204
322 334 298 294 270 249 256 303 262 247 262 266 280 258 250 252 246 234 247 224 78 62 347 337 330 324 320 325 327 333 331 326 316 308 303 302 300 299 296 297 296 292 295 289 277 265 253 242 232 222 222 211 209 204
3 10 33 16 347 298 310 277 265 265 285 264 252 285 297 273 276 254 263 159 139 95 16 10 356 349 344 342 340 340 333 328 323 316 309 307 299 305 301 295 293 292 291 283 272 276 264 249 245 233 223 216 213 208
331 8 41 19 355 325 285 301 273 287 270 263 288 280 335 311 256 276 296 332 199 92 39 10 355 350 342 337 337 333 330 326 322 315 314 308 302 297 299 299 291 289 287 291 282 277 268 256 245 233 227 220 216 210
78 11 15 0 349 333 312 306 296 310 308 280 262 304 288 268 258 246 101 28 20 15 1 351 337 325 320 321 320 320 318 319 322 315 317 305 297 291 294 297 295 295 286 293 298 282 268 259 242 228 221 216 215 208
71 68 30 327 313 303 282 278 288 283 264 253 294 304 266 247 238 86 110 19 1 343 338 331 326 321 314 313 313 311 309 313 308 301 308 313 308 293 284 280 282 283 281 294 290 284 272 259 241 227 215 212 212 212
2 344 327 321 310 296 290 289 276 262 286 12 303 266 305 339 26 41 16 352 357 358 352 347 334 321 322 318 314 319 320 317 315 317 320 320 321 318 314 297 286 279 279 282 287 279 268 258 247 226 216 218 222 220
321 330 319 299 292 283 251 267 282 320 341 332 307 292 315 53 16 3 360 11 8 7 358 351 344 340 337 332 335 327 319 316 318 315 315 321 325 341 322 317 308 293 283 276 275 271 263 255 247 240 235 226 221 219
323 340 311 302 234 269 266 308 308 309 308 299 285 288 290 116 56 48 35 20 10 0 352 345 340 340 335 333 330 330 336 333 329 321 329 315 314 314 317 314 311 303 289 277 271 268 260 249 235 224 221 214 204 200
310 313 288 311 294 311 326 322 320 304 292 301 280 265 280 136 92 35 29 19 10 6 358 353 348 344 337 333 330 329 331 335 328 325 312 307 307 311 311 310 308 302 293 283 273 262 248 235 224 220 220 211 202 197
310 322 318 299 315 320 316 323 319 298 301 270 231 193 171 161 105 40 15 17 14 11 4 356 351 344 345 344 336 332 327 329 333 330 327 320 313 308 305 303 298 292 283 276 266 255 238 226 222 214 206 200 196 193
298 298 286 297 320 320 322 328 307 283 259 265 85 43 19 65 87 49 17 12 11 5 4 2 360 355 348 344 338 321 329 333 332 330 330 332 331 327 316 305 296 286 274 257 238 211 192 187 185 182 183 186 190 194
Height
1446 1447 1447 1448 1450 1452 1455 1458 1461 1464 1466 1468 1470 1472 1475 1476 1477 1479 1478 1482 1481 1475 1468 1469 1468 1467 1464 1461 1458 1457 1458 1450 1450 1443 1435 1423 1415 1408 1409 1402 1406 1406 1412 1413 1412 1412 1412 1395 1396 1403 1401 1406 1405 1407
1436 1435 1435 1435 1437 1439 1443 1448 1452 1456 1460 1462 1465 1467 1469 1472 1473 1474 1474 1476 1475 1473 1466 1464 1464 1464 1464 1462 1462 1460 1455 1453 1450 1447 1441 1427 1418 1410 1410 1408 1396 1401 1397 1401 1411 1402 1406 1405 1402 1401 1402 1404 1405 1407
1422 1419 1418 1418 1421 1424 1429 1435 1441 1446 1451 1456 1460 1462 1465 1467 1468 1469 1469 1471 1470 1466 1462 1460 1456 1457 1458 1457 1459 1456 1451 1451 1452 1451 1448 1438 1423 1417 1413 1403 1395 1396 1397 1398 1400 1398 1398 1398 1399 1399 1400 1402 1402 1403
1408 1404 1402 1400 1400 1404 1411 1420 1429 1436 1443 1449 1453 1457 1460 1461 1463 1464 1464 1466 1467 1464 1457 1449 1448 1447 1447 1447 1447 1447 1445 1450 1450 1449 1447 1441 1434 1414 1403 1400 1397 1399 1401 1399 1398 1398 1397 1396 1396 1398 1398 1398 1398 1398
1394 1388 1383 1380 1381 1383 1390 1403 1416 1426 1435 1442 1447 1451 1455 1457 1460 1460 1459 1458 1460 1463 1452 1447 1443 1440 1439 1438 1439 1439 1439 1441 1443 1444 1440 1433 1424 1417 1404 1398 1396 1395 1392 1393 1393 1394 1392 1392 1393 1393 1393 1393 1395 1394
1383 1373 1365 1360 1359 1363 1370 1387 1404 1419 1428 1436 1442 1447 1451 1454 1456 1457 1455 1449 1452 1456 1455 1445 1431 1430 1430 1429 1431 1430 1428 1432 1434 1433 1431 1423 1416 1410 1399 1392 1389 1388 1389 1389 1388 1389 1389 1389 1389 1390 1389 1390 1390 1390
1375 1362 1351 1343 1343 1349 1359 1376 1398 1413 1424 1432 1439 1443 1447 1450 1452 1453 1452 1449 1450 1453 1453 1443 1425 1419 1421 1422 1423 1422 1422 1422 1424 1425 1421 1418 1412 1407 1398 1392 1387 1387 1386 1385 1385 1386 1385 1385 1383 1383 1384 1384 1384 1384
1374 1359 1336 1325 1332 1343 1355 1380 1398 1412 1423 1430 1436 1441 1445 1448 1449 1447 1448 1449 1449 1451 1448 1438 1425 1419 1418 1418 1418 1415 1414 1416 1415 1416 1410 1405 1400 1400 1394 1384 1383 1380 1378 1376 1377 1378 1377 1378 1379 1379 1379 1379 1379 1379
1383 1371 1356 1347 1350 1358 1373 1389 1402 1413 1422 1430 1436 1440 1443 1444 1443 1440 1443 1447 1447 1449 1440 1431 1424 1417 1416 1414 1412 1411 1408 1406 1407 1403 1400 1401 1398 1394 1383 1381 1379 1377 1376 1373 1372 1372 1372 1373 1373 1375 1374 1374 1374 1374
1395 1389 1383 1379 1379 1384 1392 1400 1409 1417 1425 1431 1436 1439 1438 1438 1440 1440 1444 1445 1445 1442 1437 1427 1422 1417 1417 1412 1408 1407 1406 1403 1401 1397 1397 1398 1388 1384 1380 1378 1376 1376 1372 1370 1367 1369 1370 1370 1370 1369 1369 1369 1369 1370
1409 1404 1400 1398 1398 1401 1405 1410 1416 1422 1428 1433 1434 1435 1435 1437 1439 1440 1440 1438 1434 1431 1424 1415 1415 1413 1413 1410 1406 1407 1405 1404 1399 1391 1394 1386 1376 1372 1376 1378 1379 1375 1371 1367 1364 1364 1365 1366 1365 1365 1365 1365 1365 1366
1419 1416 1414 1413 1413 1414 1416 1419 1422 1427 1430 1432 1433 1435 1436 1437 1437 1436 1428 1425 1421 1413 1408 1406 1404 1405 1410 1409 1407 1407 1406 1408 1401 1396 1392 1382 1371 1373 1378 1380 1376 1373 1372 1369 1366 1365 1364 1363 1362 1362 1363 1363 1364 1364
1424 1423 1423 1422 1422 1423 1424 1426 1428 1430 1431 1433 1434 1434 1432 1431 1429 1426 1413 1409 1407 1403 1406 1406 1406 1406 1408 1408 1407 1407 1408 1403 1396 1397 1384 1371 1375 1379 1381 1378 1375 1373 1373 1370 1368 1367 1366 1364 1363 1363 1363 1363 1363 1363
1428 1428 1427 1427 1428 1428 1428 1430 1431 1433 1433 1433 1433 1428 1422 1415 1414 1407 1404 1403 1405 1405 1406 1406 1406 1406 1408 1407 1408 1407 1401 1397 1394 1386 1373 1377 1381 1381 1381 1378 1378 1376 1373 1371 1369 1367 1366 1365 1365 1364 1365 1365 1366 1366
1433 1432 1431 1431 1430 1431 1431 1432 1433 1433 1433 1431 1426 1415 1413 1410 1410 1410 1409 1408 1407 1407 1408 1408 1408 1407 1408 1407 1407 1403 1399 1393 1382 1374 1375 1383 1384 1382 1381 1379 1377 1376 1374 1372 1370 1368 1367 1366 1365 1365 1366 1367 1368 1369
1436 1435 1434 1432 1432 1431 1431 1432 1432 1432 1430 1426 1421 1416 1413 1411 1410 1410 1410 1409 1409 1409 1408 1406 1404 1404 1402 1401 1400 1397 1384 1379 1375 1381 1383 1383 1383 1382 1381 1379 1377 1376 1374 1373 1371 1369 1368 1367 1367 1367 1366 1368 1369 1370
1435 1435 1433 1431 1430 1430 1431 1430 1430 1428 1426 1422 1418 1416 1416 1414 1411 1410 1410 1410 1409 1409 1405 1401 1401 1396 1393 1389 1386 1380 1380 1380 1384 1384 1384 1384 1383 1382 1380 1378 1376 1375 1373 1372 1371 1370 1369 1369 1368 1368 1369 1370 1370 1371
1435 1434 1432 1430 1429 1429 1429 1429 1428 1424 1420 1417 1417 1414 1413 1413 1412 1411 1410 1410 1410 1408 1405 1401 1401 1394 1392 1383 1378 1383 1386 1388 1387 1384 1383 1382 1381 1380 1378 1376 1375 1374 1372 1371 1370 1370 1370 1370 1370 1370 1370 1370 1371 1372
1433 1431 1430 1429 1428 1428 1427 1426 1425 1418 1414 1414 1413 1412 1411 1410 1408 1408 1408 1408 1408 1407 1406 1403 1399 1394 1388 1385 1387 1389 1389 1388 1385 1384 1383 1381 1380 1378 1376 1374 1373 1372 1371 1370 1370 1370 1371 1370 1371 1371 1370 1371 1373 1373
1429 1428 1427 1426 1426 1426 1423 1421 1420 1417 1411 1410 1410 1408 1407 1407 1406 1405 1405 1405 1405 1405 1404 1399 1392 1390 1391 1391 1391 1390 1389 1387 1386 1383 1381 1380 1379 1378 1376 1374 1372 1371 1369 1368 1368 1368 1369 1369 1369 1369 1370 1371 1372 1372
1426 1425 1424 1423 1424 1423 1421 1417 1415 1413 1411 1408 1406 1406 1404 1403 1403 1402 1402 1401 1402 1400 1395 1393 1393 1393 1392 1391 1390 1389 1388 1387 1385 1384 1381 1380 1378 1377 1375 1373 1370 1369 1368 1367 1366 1366 1366 1367 1368 1368 1367 1368 1369 1370
1425 1423 1422 1421 1421 1420 1418 1416 1414 1412 1411 1406 1405 1403 1401 1400 1399 1399 1399 1399 1395 1393 1394 1394 1394 1393 1392 1391 1390 1388 1386 1385 1383 1381 1380 1378 1376 1374 1373 1371 1369 1367 1366 1364 1363 1363 1364 1364 1365 1365 1365 1366 1368 1368
1421 1421 1421 1421 1420 1418 1417 1414 1412 1409 1407 1405 1403 1400 1398 1396 1396 1398 1396 1393 1394 1394 1395 1394 1393 1392 1391 1390 1389 1387 1386 1384 1382 1380 1378 1376 1374 1372 1370 1367 1366 1364 1362 1361 1360 1360 1360 1361 1361 1362 1362 1364 1365 1366
1420 1420 1419 1419 1419 1417 1415 1413 1410 1408 1406 1403 1399 1398 1396 1395 1396 1392 1388 1389 1393 1394 1395 1394 1393 1391 1390 1389 1387 1386 1385 1383 1380 1378 1376 1374 1371 1369 1367 1365 1363 1361 1359 1358 1357 1357 1356 1356 1357 1358 1359 1360 1362 1363
1423 1423 1422 1419 1419 1417 1414 1411 1409 1406 1405 1402 1401 1399 1396 1397 1392 1388 1388 1390 1393 1393 1394 1394 1394 1393 1391 1389 1388 1387 1385 1381 1378 1375 1373 1372 1368 1366 1364 1362 1360 1358 1356 1355 1354 1353 1353 1353 1353 1354 1355 1357 1358 1360
1421 1423 1422 1421 1419 1418 1414 1413 1409 1407 1405 1405 1400 1398 1398 1395 1392 1388 1391 1398 1397 1396 1396 1395 1395 1393 1391 1389 1387 1385 1382 1378 1375 1372 1371 1369 1365 1363 1360 1359 1357 1356 1354 1353 1352 1351 1350 1350 1350 1351 1352 1354 1356 1358
1421 1422 1423 1423 1422 1420 1416 1413 1411 1409 1406 1403 1400 1399 1395 1391 1387 1392 1397 1399 1399 1397 1396 1394 1392 1391 1389 1386 1384 1381 1379 1375 1373 1369 1365 1362 1359 1358 1356 1355 1354 1353 1351 1351 1350 1349 1348 1348 1348 1349 1350 1351 1353 1355
1425 1423 1423 1422 1420 1418 1417 1413 1411 1408 1405 1404 1403 1398 1394 1392 1393 1400 1400 1399 1397 1396 1395 1393 1391 1389 1386 1383 1380 1377 1374 1371 1367 1364 1362 1360 1357 1354 1352 1351 1349 1348 1348 1347 1347 1346 1346 1346 1346 1347 1348 1349 1351 1352
1424 1424 1423 1420 1420 1416 1414 1412 1410 1408 1409 1408 1405 1401 1400 1399 1401 1401 1400 1399 1397 1395 1393 1391 1388 1385 1383 1380 1377 1374 1371 1368 1365 1362 1360 1357 1355 1353 1350 1348 1346 1345 1344 1344 1343 1343 1343 1344 1344 1345 1346 1347 1349 1351
1425 1424 1422 1418 1417 1413 1412 1411 1410 1408 1407 1406 1405 1403 1402 1400 1401 1401 1400 1399 1397 1396 1394 1391 1388 1385 1381 1377 1373 1370 1368 1365 1364 1361 1358 1356 1354 1351 1348 1346 1344 1342 1341 1341 1340 1340 1341 1341 1342 1343 1344 1345 1347 1349
1425 1423 1419 1417 1414 1412 1410 1409 1407 1405 1403 1402 1400 1400 1399 1401 1402 1402 1401 1400 1399 1397 1394 1390 1387 1384 1380 1376 1373 1368 1364 1363 1360 1358 1355 1353 1351 1349 1347 1344 1342 1340 1339 1338 1338 1338 1338 1339 1340 1340 1342 1344 1346 1348
1423 1422 1422 1417 1413 1412 1410 1408 1405 1401 1401 1399 1397 1398 1398 1398 1401 1405 1404 1401 1399 1397 1394 1390 1386 1382 1378 1375 1372 1369 1367 1362 1359 1356 1352 1350 1347 1345 1342 1340 1339 1337 1336 1336 1336 1336 1337 1337 1338 1339 1341 1342 1345 1348
1422 1420 1419 1416 1413 1411 1409 1407 1402 1398 1397 1396 1396 1397 1397 1396 1403 1407 1406 1404 1401 1398 1394 1390 1386 1382 1378 1374 1371 1368 1364 1361 1358 1355 1351 1348 1345 1342 1340 1338 1337 1336 1336 1335 1335 1336 1336 1337 1338 1339 1341 1343 1344 1347